Date,TemperatureHighF,TemperatureAvgF,TemperatureLowF,DewpointHighF,DewpointAvgF,DewpointLowF,HumidityHigh,HumidityAvg,HumidityLow,PressureMaxIn,PressureMinIn,WindSpeedMaxMPH,WindSpeedAvgMPH,GustSpeedMaxMPH,PrecipitationSumIn
2013-8-1,85.0,67.9,53.0,68.0,60.0,51.0,96,78,51,29.96,29.76,3,0,0,0.00
2013-8-2,77.0,66.9,57.0,64.0,58.6,55.0,93,76,49,29.94,29.77,9,1,0,0.00
2013-8-3,78.0,64.0,49.0,59.0,53.8,47.0,96,73,43,30.09,29.94,5,0,0,0.00
2013-8-4,78.0,63.0,49.0,61.0,54.9,47.0,96,77,51,30.13,29.91,3,0,0,0.00
2013-8-5,82.0,67.9,62.0,72.0,64.6,60.0,97,89,63,29.91,29.70,7,1,16,0.00
2013-8-6,85.0,71.9,57.0,71.0,65.2,56.0,98,81,56,29.75,29.62,10,0,0,0.00
2013-8-7,75.0,67.0,60.0,66.0,59.3,53.0,97,78,48,29.93,29.67,0,0,0,0.00
2013-8-8,74.0,62.1,55.0,64.0,57.6,53.0,95,86,64,29.98,29.88,2,0,0,0.00
2013-8-9,76.0,66.5,56.0,63.0,59.0,54.0,98,79,55,30.03,29.89,3,0,0,0.00
2013-8-10,78.0,64.9,52.0,66.0,58.1,49.0,96,80,57,30.09,29.97,1,0,0,0.00
2013-8-11,75.0,67.1,63.0,68.0,64.6,62.0,97,91,78,29.99,29.89,0,0,0,0.00
2013-8-12,78.0,67.2,59.0,64.0,59.6,57.0,98,79,50,29.96,29.91,1,0,0,0.00
2013-8-13,73.0,62.6,53.0,59.0,52.5,-99.9,98,75,45,30.08,29.96,5,0,0,0.00
2013-8-14,75.0,62.1,49.0,59.0,51.4,-99.9,95,75,45,30.11,30.01,5,0,0,0.00
2013-8-15,78.0,58.9,51.0,60.0,43.2,-99.9,96,73,46,30.04,29.98,6,1,0,0.00
2013-8-16,77.0,63.6,50.0,61.0,53.1,-99.9,98,76,50,30.10,30.04,2,0,0,0.00
2013-8-17,80.0,66.2,53.0,61.0,55.4,-99.9,95,72,49,30.10,30.00,0,0,0,0.00
2013-8-18,80.0,67.6,53.0,64.0,58.7,51.0,95,75,50,30.04,29.91,0,0,0,0.00
2013-8-19,85.0,69.4,62.0,71.0,55.0,-99.9,90,77,61,29.94,29.78,11,1,0,0.00
2013-8-20,87.0,76.8,70.0,76.0,69.2,-99.9,90,80,69,29.81,29.73,5,0,0,0.00
2013-8-21,83.0,76.0,71.0,75.0,71.6,69.0,96,87,75,29.85,29.72,0,0,0,0.00
2013-8-22,82.0,73.7,65.0,72.0,67.8,62.0,98,83,61,29.98,29.84,4,0,0,0.00
2013-8-23,82.0,71.1,58.0,73.0,66.8,57.0,98,87,72,30.00,29.91,2,0,0,0.00
2013-8-24,85.0,76.6,71.0,77.0,70.2,-99.9,90,82,74,29.95,29.83,0,0,0,0.00
2013-8-25,92.0,81.2,72.0,78.0,73.7,69.0,91,79,62,29.91,29.82,15,3,21,0.00
2013-8-26,92.0,82.8,74.0,80.0,75.3,71.0,92,79,64,29.87,29.72,8,2,12,0.00
2013-8-27,90.0,79.1,73.0,78.0,72.6,69.0,89,81,65,29.73,29.67,8,1,0,0.00
2013-8-28,91.0,86.3,80.0,81.0,79.4,77.0,93,80,72,29.85,29.80,6,1,0,0.00
2013-8-29,91.0,80.8,73.0,78.0,73.7,71.0,97,80,55,29.86,29.74,2,0,0,0.00
2013-8-30,83.0,75.6,66.0,74.0,70.3,64.0,97,84,65,29.78,29.72,1,0,0,0.00
2013-8-31,87.0,72.9,59.0,73.0,65.5,-99.9,98,81,60,29.76,29.64,0,0,0,0.00